Regional Weather Roundup
Issued by NWS

Home | Current Version | Previous Version | Graphics & Text | Print | Product List | Glossary On
Versions: 1 2 3 4 5 6 7 8 9 10 11 12 13 14 15 16 17 18 19 20 21 22 23 24 25 26 27 28 29 30 31 32 33 34 35 36 37 38 39 40 41 42 43 44 45 46 47 48 49 50
000
ASUS43 KFSD 082310
RWRSD

WEATHER ROUNDUP FOR SOUTH DAKOTA
NATIONAL WEATHER SERVICE SIOUX FALLS SD
500 PM CST THU DEC 08 2016

NOTE: "FAIR" INDICATES FEW OR NO CLOUDS BELOW 12,000 FEET WITH NO
SIGNIFICANT WEATHER AND/OR OBSTRUCTIONS TO VISIBILITY.


SDZ001>005-009-010-012>017-090000-
NORTHWEST AND NORTH CENTRAL SOUTH DAKOTA

CITY           SKY/WX    TMP DP  RH WIND       PRES   REMARKS
BUFFALO          N/A      2  -6  69 N8        30.42S WCI -12
FAITH            N/A     -1  -6  79 N6        30.55S WCI -13
MOBRIDGE       CLEAR      4  -6  63 NW12      30.60S WCI -12
$$

SDZ012>016-024>037-041>051-057-063-072>074-090000-
SOUTHWEST AND SOUTH CENTRAL SOUTH DAKOTA

CITY           SKY/WX    TMP DP  RH WIND       PRES   REMARKS
RAPID CTY ARPT CLEAR      8  -5  55 NE7       30.48F WCI  -3
PIERRE         CLOUDY     6   0  76 N12       30.62F WCI  -9
CUSTER         CLEAR      5  -7  57 S6        30.25S WCI  -6
ELLSWORTH AFB  CLEAR     10  -4  53 NE7       30.47F WCI  -2
PHILIP         CLEAR      7  -3  64 N6        30.59F WCI  -3
PINE RIDGE     CLEAR      6  -4  63 E6        30.48F WCI  -4
SPEARFISH      FAIR       3  -6  66 CALM      30.41F
WINNER         FAIR      10  -1  61 NW12      30.61S WCI  -5
$$

SDZ004>011-016>023-039-040-090000-
NORTHEAST SOUTH DAKOTA

CITY           SKY/WX    TMP DP  RH WIND       PRES   REMARKS
ABERDEEN       CLEAR      7  -1  70 NW12      30.63R WCI  -8
WATERTOWN      CLEAR     10   4  76 NW15      30.53R WCI  -7
BROOKINGS      CLEAR     10   6  84 NW13      30.54R WCI  -5
SISSETON         N/A      9   3  77 NW13      30.57R WCI  -7
$$

SDZ017-020-022-023-036>040-048>070-090000-
SOUTHEAST SOUTH DAKOTA

CITY           SKY/WX    TMP DP  RH WIND       PRES   REMARKS
SIOUX FALLS    PTCLDY    15   7  70 NW14      30.57R WCI   0
HURON          CLEAR      9   3  77 NW14      30.64R WCI  -7
CHAMBERLAIN    CLOUDY    11   5  77 N10       30.63S WCI  -3
MITCHELL       CLEAR     13   4  67 NW13      30.64R WCI  -2
YANKTON        CLEAR     18   3  53 W12       30.62R WCI   5
$$

ABBREVIATIONS USED IN REMARKS
   TC - TEMPERATURE IN CELSIUS
  WCI - WIND CHILL INDEX
   HX - HEAT INDEX
  VSB - VISIBILITY




USA.gov is the U.S. government's official web portal to all federal, state and local government web resources and services.